Location: Dodgeville, WI 53533, USA
(43.0344°N, 90.0900°W)
Time: 13:12:14
(UTC-06:00)

N. Korean satellite - Visible Passes

Search period start: 19 January 2022 00:00
Search period end: 29 January 2022 00:00
Orbit: 446 x 491 km, 97.3° (Epoch: 18 January)

Date Brightness Start Highest point End Pass type
(mag) Time Alt. Az. Time Alt. Az. Time Alt. Az.
19 Jan 9.3 04:48:57 10° NNE 04:57:26 - S 04:49:31 14° NNE visible
19 Jan 8.6 06:22:58 10° NNW 06:23:34 12° NW 06:23:34 12° NW visible
20 Jan10.004:28:04SSE04:28:04SSE04:20:25NEvisible
20 Jan 8.2 05:53:00 10° N 05:54:29 20° NNW 05:54:29 20° NNW visible
21 Jan 8.0 05:23:37 10° N 05:32:43 - SSW 05:25:24 27° N visible
21 Jan 9.9 17:33:20 10° WSW 17:34:49 12° W 17:36:19 10° WNW visible
22 Jan 8.6 04:54:36 10° NNE 05:03:18 - S 04:56:18 24° NE visible
22 Jan 8.4 06:29:01 10° NW 06:30:22 13° WNW 06:30:22 13° WNW visible
23 Jan 9.5 04:26:07 10° NE 04:33:52 - SSE 04:27:11 15° ENE visible
23 Jan 7.6 05:58:47 10° N 06:01:15 26° NW 06:01:15 26° NW visible
24 Jan 6.9 05:29:15 10° N 05:38:26 - SSW 05:32:09 50° NNW visible
24 Jan 10.3 17:39:44 10° WSW 17:40:27 10° W 17:41:11 10° WNW visible
25 Jan 7.6 05:00:07 10° NNE 05:08:56 - S 05:03:03 44° ENE visible
25 Jan 8.5 06:35:01 10° NW 06:36:22 12° WNW 06:37:06 11° WNW visible
26 Jan 9.1 04:31:27 10° NE 04:39:24 - SSE 04:33:56 21° E visible
26 Jan 7.6 06:04:25 10° NNW 06:07:24 24° WNW 06:08:00 23° W visible
27 Jan 6.6 05:34:44 10° N 05:38:18 54° WNW 05:38:54 47° WSW visible
28 Jan 7.0 05:05:28 10° NNE 05:09:05 60° E 05:09:49 48° SSE visible
28 Jan 8.6 06:41:18 10° WNW 06:41:41 10° WNW 06:42:05 10° WNW visible
